Weather History for Sheridan, WY

Change the Weather History Date:

Saturday, March 29, 2014

  Actual Average Record
Temperature  
Mean Temperature 9 °C 4 °C  
Max Temperature 19 °C 11 °C 25 °C (1978)
Min Temperature -1 °C -3 °C -23 °C (1987)
Degree Days  
Heating Degree Days 16 26  
Month to date heating degree days 926 873  
Since 1 July heating degree days 6676 6408  
Cooling Degree Days 0 0  
Month to date cooling degree days 0 0  
Year to date cooling degree days 0 0  
Moisture  
Dew Point -3 °C    
Average Humidity 48    
Maximum Humidity 78    
Minimum Humidity 18    
Precipitation  
Precipitation 0.00 mm 1.02 mm 1.70 mm (1977)
Month to date precipitation 1.46 0.90  
Year to date precipitation 3.31 2.00  
Sea Level Pressure  
Sea Level Pressure 1009 hPa    
Wind  
Wind Speed 18 km/h (WSW)    
Max Wind Speed 58 km/h    
Max Gust Speed 69 km/h    
Visibility 16 kilometers    
Events      
T = Trace of Precipitation, MM = Missing Value Source: NWS Daily Summary

Daily Weather History Graph

Daily Weather History Graph

Search for Another Location

Airport:

Trip Planner

Search our weather history database for the weather conditions in past years. The results will help you decide how hot, cold, wet, or windy it might be!

Date:

Astronomy

Mar. 29, 2014 Rise Set
Actual Time 6:54 AM MDT 7:31 PM MDT
Civil Twilight 6:24 AM MDT 8:01 PM MDT
Nautical Twilight 5:49 AM MDT 8:36 PM MDT
Astronomical Twilight 5:13 AM MDT 9:12 PM MDT
Moon 6:07 AM MDT (3/29) 6:38 PM MDT (3/29)
Length of Visible Light 13h 36m
Length of Day
12h 37m
Waning Crescent, 1% of the Moon is Illuminated
Mar 29
Waning Crescent
Mar 30
New
Apr 7
First Quarter
Apr 15
Full
Apr 22
Last Quarter

Hourly Weather History & Observations

Time (MDT) Temp. Windchill Dew Point Humidity Pressure Visibility Wind Dir Wind Speed Gust Speed Precip Events Conditions
12:53 AM -0.6 °C -3.2 °C -5.0 °C 72% 1014.6 hPa 16.1 km North 7.4 km/h / 2.1 m/s - N/A   Clear
1:53 AM 0.6 °C -2.4 °C -4.4 °C 70% 1013.6 hPa 16.1 km North 9.3 km/h / 2.6 m/s - N/A   Clear
2:53 AM -0.6 °C - -4.4 °C 76% 1013.2 hPa 16.1 km Calm Calm - N/A   Clear
3:53 AM 3.3 °C -0.3 °C -5.6 °C 53% 1011.2 hPa 16.1 km SSW 14.8 km/h / 4.1 m/s - N/A   Clear
4:53 AM 0.6 °C -1.1 °C -4.4 °C 70% 1011.0 hPa 16.1 km Variable 5.6 km/h / 1.5 m/s - N/A   Clear
5:53 AM 0.6 °C -3.6 °C -4.4 °C 70% 1010.8 hPa 16.1 km NE 14.8 km/h / 4.1 m/s - N/A   Clear
6:53 AM 1.1 °C -2.6 °C -5.0 °C 64% 1011.1 hPa 16.1 km North 13.0 km/h / 3.6 m/s - N/A   Clear
7:53 AM 9.4 °C - -5.6 °C 35% 1009.5 hPa 16.1 km SW 24.1 km/h / 6.7 m/s - N/A   Clear
8:53 AM 13.3 °C - -5.6 °C 27% 1008.3 hPa 16.1 km SW 16.7 km/h / 4.6 m/s - N/A   Clear
9:53 AM 15.6 °C - -5.0 °C 24% 1008.0 hPa 16.1 km SSW 22.2 km/h / 6.2 m/s - N/A   Clear
10:53 AM 17.2 °C - -5.6 °C 21% 1006.8 hPa 16.1 km WSW 29.6 km/h / 8.2 m/s 40.7 km/h / 11.3 m/s N/A   Clear
11:53 AM 17.2 °C - -6.7 °C 19% 1006.4 hPa 16.1 km WSW 27.8 km/h / 7.7 m/s 33.3 km/h / 9.3 m/s N/A   Clear
12:53 PM 17.2 °C - -6.1 °C 20% 1006.5 hPa 16.1 km SSW 14.8 km/h / 4.1 m/s - N/A   Clear
1:53 PM 17.8 °C - -6.7 °C 18% 1005.8 hPa 16.1 km NNW 7.4 km/h / 2.1 m/s - N/A   Mostly Cloudy
2:53 PM 19.4 °C - -5.6 °C 18% 1005.0 hPa 16.1 km West 20.4 km/h / 5.7 m/s 31.5 km/h / 8.7 m/s N/A   Clear
3:53 PM 17.2 °C - -5.6 °C 21% 1004.3 hPa 16.1 km SW 16.7 km/h / 4.6 m/s 29.6 km/h / 8.2 m/s N/A   Partly Cloudy
4:53 PM 17.2 °C - -3.9 °C 24% 1004.8 hPa 16.1 km West 29.6 km/h / 8.2 m/s - N/A   Clear
5:37 PM 16.1 °C - -2.2 °C 29% 1005.3 hPa 16.1 km West 33.3 km/h / 9.3 m/s 42.6 km/h / 11.8 m/s N/A   Clear
5:53 PM 15.0 °C - -1.1 °C 33% 1006.2 hPa 16.1 km WNW 57.4 km/h / 15.9 m/s 68.5 km/h / 19.0 m/s N/A   Scattered Clouds
6:53 PM 10.0 °C - 1.1 °C 54% 1008.8 hPa 16.1 km NW 37.0 km/h / 10.3 m/s - N/A   Clear
7:53 PM 7.2 °C 5.1 °C 1.1 °C 65% 1009.5 hPa 16.1 km WNW 11.1 km/h / 3.1 m/s - N/A   Scattered Clouds
8:53 PM 7.2 °C 6.4 °C 1.1 °C 65% 1009.7 hPa 16.1 km South 5.6 km/h / 1.5 m/s - N/A   Clear
9:53 PM 7.2 °C 3.3 °C 1.1 °C 65% 1009.3 hPa 16.1 km NW 25.9 km/h / 7.2 m/s - N/A   Mostly Cloudy
10:53 PM 5.0 °C 3.9 °C 1.1 °C 76% 1009.5 hPa 16.1 km SSE 5.6 km/h / 1.5 m/s - N/A   Mostly Cloudy
11:53 PM 5.6 °C 4.0 °C 1.7 °C 76% 1010.0 hPa 16.1 km South 7.4 km/h / 2.1 m/s - N/A   Overcast